EW4486 Weather Reports


time (UTC)temp
F
wind
direction
speed
knots
gust
knots
rain 1hr
in
rain 24hr
in
rain mn
in
humidity
%
barometer
mb
20260902163004 79 78 0.0 0.9 0.00 0.00 0.00 63 1019.5
20260902161503 79 80 0.9 3.5 0.00 0.00 0.00 57 1019.7
20260902160108 79 37 0.0 4.3 0.00 0.00 0.00 65 1019.7
20260902154612 78 67 3.5 6.1 0.00 0.00 0.00 60 1019.8
20260902153056 78 82 0.0 5.2 0.00 0.00 0.00 64 1019.8
20260902151554 77 18 0.9 4.3 0.00 0.00 0.00 70 1019.8
20260902150045 77 34 0.0 4.3 0.00 0.00 0.00 68 1019.8
20260902144547 77 98 1.7 6.1 0.00 0.00 0.00 71 1019.7
20260902143036 76 273 0.9 4.3 0.00 0.00 0.00 69 1019.4
20260902141531 75 68 3.5 6.1 0.00 0.00 0.00 69 1019.4
20260902140035 75 65 3.5 5.2 0.00 0.00 0.00 71 1019.3
20260902134523 75 59 2.6 5.2 0.00 0.00 0.00 74 1019.3
20260902133019 74 56 0.0 3.5 0.00 0.00 0.00 78 1019.4
20260902131513 74 66 0.9 4.3 0.00 0.00 0.00 78 1019.4
20260902130009 73 57 1.7 6.1 0.00 0.00 0.00 76 1019.3
20260902124514 73 65 1.7 4.3 0.00 0.00 0.00 77 1019.4
20260902123002 72 58 1.7 2.6 0.00 0.00 0.00 80 1019.3
20260902121608 71 74 0.9 3.5 0.00 0.00 0.00 80 1019.2
20260902120058 70 57 1.7 2.6 0.00 0.00 0.00 82 1019.2
20260902114556 70 67 1.7 4.3 0.00 0.00 0.00 81 1019.2
20260902113049 69 42 0.0 1.7 0.00 0.00 0.00 84 1018.8
20260902111545 69 42 0.0 1.7 0.00 0.00 0.00 84 1018.8
20260902110044 68 42 0.9 3.5 0.00 0.00 0.00 84 1018.7
20260902104547 68 42 0.9 3.5 0.00 0.00 0.00 85 1018.7
20260902103046 68 42 0.9 3.5 0.00 0.00 0.00 85 1018.7
20260902101545 68 42 0.9 4.3 0.00 0.00 0.00 85 1018.7
20260902100041 68 42 0.9 2.6 0.00 0.00 0.00 86 1018.7
20260902094540 68 61 0.9 2.6 0.00 0.00 0.00 86 1018.5
20260902093048 68 57 0.0 3.5 0.00 0.00 0.00 86 1018.5
20260902091547 68 52 0.0 3.5 0.00 0.00 0.00 86 1018.5
20260902090038 69 50 0.9 3.5 0.00 0.00 0.00 85 1018.6
20260902084548 69 46 0.9 4.3 0.00 0.00 0.00 83 1018.5
20260902083042 70 16 0.9 4.3 0.00 0.00 0.00 82 1018.5
20260902081535 70 22 0.0 2.6 0.00 0.00 0.00 82 1018.5
20260902080033 70 62 0.0 4.3 0.00 0.00 0.00 82 1018.3
20260902074533 70 67 1.7 4.3 0.00 0.00 0.00 82 1018.4
20260902073034 70 36 0.0 3.5 0.00 0.00 0.00 82 1018.5
20260902071536 70 40 1.7 3.5 0.00 0.00 0.00 82 1018.5
20260902070030 70 67 0.9 3.5 0.00 0.00 0.00 81 1018.4
20260902064529 70 123 0.0 1.7 0.00 0.00 0.00 81 1018.3
20260902063032 71 55 0.0 1.7 0.00 0.00 0.00 81 1018.2
20260902061541 71 86 0.0 1.7 0.00 0.00 0.00 81 1018.4
20260902060027 71 297 0.9 4.3 0.00 0.00 0.00 81 1018.5
20260902054532 71 22 0.9 4.3 0.00 0.00 0.00 81 1018.5
20260902053029 71 44 0.9 6.1 0.00 0.00 0.00 82 1018.3
20260902051525 71 75 0.0 1.7 0.00 0.00 0.00 82 1018.4
20260902050026 71 10 0.0 1.7 0.00 0.00 0.00 81 1018.3
20260902044524 71 315 0.0 4.3 0.00 0.00 0.00 81 1018.4
20260902043023 71 333 0.0 0.0 0.00 0.00 0.00 81 1018.6
20260902041521 71 118 0.0 1.7 0.00 0.00 0.00 80 1018.6
20260902040019 72 318 0.9 3.5 0.00 0.00 0.00 79 1018.5
20260902034519 72 69 1.7 4.3 0.00 0.00 0.00 79 1018.4
20260902033019 72 78 2.6 6.1 0.00 0.00 0.00 80 1018.5
20260902031517 71 109 0.9 4.3 0.00 0.00 0.00 79 1018.5
20260902030017 71 76 0.9 3.5 0.00 0.00 0.00 80 1018.7
20260902024521 71 89 0.0 3.5 0.00 0.00 0.00 79 1018.8
20260902023017 72 98 0.0 4.3 0.00 0.00 0.00 78 1018.5
20260902021516 72 67 0.0 1.7 0.00 0.00 0.00 77 1018.4
20260902020020 72 201 0.0 0.9 0.00 0.00 0.00 75 1018.3
20260902014517 73 201 0.0 3.5 0.00 0.00 0.00 73 1018.2
20260902013015 73 248 0.0 4.3 0.00 0.00 0.00 74 1018.1
20260902011514 73 285 0.0 1.7 0.00 0.00 0.00 75 1017.9
20260902010018 73 240 0.0 0.0 0.00 0.00 0.00 76 1017.7
20260902004513 73 242 0.0 1.7 0.00 0.00 0.00 75 1017.6
20260902003112 73 77 0.0 1.7 0.00 0.00 0.00 75 1017.6
20260902001511 74 294 0.9 1.7 0.00 0.00 0.00 73 1017.6
20260902000012 74 62 0.0 1.7 0.00 0.00 0.00 72 1017.7
20260901234509 75 29 0.0 3.5 0.00 0.00 0.00 71 1017.9
20260901233013 75 12 0.0 1.7 0.00 0.00 0.00 72 1017.9
20260901231507 76 60 0.0 0.9 0.00 0.00 0.00 71 1018.1
20260901230006 76 60 0.0 3.5 0.00 0.00 0.00 70 1018.3
20260901224505 77 51 1.7 4.3 0.00 0.00 0.00 70 1018.2
20260901223005 77 360 2.6 5.2 0.00 0.00 0.00 69 1018.2
20260901221504 77 48 0.9 4.3 0.00 0.00 0.00 69 1017.9
20260901220003 78 42 1.7 4.3 0.00 0.00 0.00 68 1018.1
20260901214502 78 32 1.7 5.2 0.00 0.00 0.00 66 1018.2
20260901213001 78 14 2.6 5.2 0.00 0.00 0.00 67 1018.1
20260901211502 77 71 0.9 3.5 0.00 0.00 0.00 66 1018.1
20260901210100 78 94 3.5 5.2 0.00 0.00 0.00 64 1018.4
20260901204559 80 31 4.3 7.0 0.00 0.00 0.00 62 1018.4
20260901203121 81 37 1.7 6.1 0.00 0.00 0.00 58 1018.4
20260901201559 81 320 0.9 7.0 0.00 0.00 0.00 58 1018.4
20260901200057 81 55 2.6 6.1 0.00 0.00 0.00 61 1018.4
20260901194558 79 257 0.0 6.1 0.00 0.00 0.00 60 1018.6
20260901193100 81 88 2.6 7.8 0.00 0.00 0.00 56 1018.8
20260901191553 81 49 3.5 7.8 0.00 0.00 0.00 55 1018.9
20260901190106 81 360 3.5 7.8 0.00 0.00 0.00 55 1019.0
20260901184552 81 286 1.7 7.8 0.00 0.00 0.00 59 1019.1
20260901183051 80 312 1.7 11.3 0.00 0.00 0.00 57 1019.1
20260901181548 80 360 1.7 8.7 0.00 0.00 0.00 58 1019.2
20260901180048 80 257 0.9 7.0 0.00 0.00 0.00 57 1019.2
20260901174547 80 84 2.6 9.6 0.00 0.00 0.00 58 1019.2
20260901173145 79 88 3.5 7.8 0.00 0.00 0.00 56 1019.2
20260901171602 79 19 2.6 7.8 0.00 0.00 0.00 57 1019.4
20260901170047 78 31 2.6 11.3 0.00 0.00 0.00 59 1019.6
20260901164544 78 355 5.2 9.6 0.00 0.00 0.00 59 1019.7